Regional Weather Roundup
Issued by NWS

Home | Current Version | Previous Version | Graphics & Text | Print | Product List | Glossary On
Versions: 1 2 3 4 5 6 7 8 9 10 11 12 13 14 15 16 17 18 19 20 21 22 23 24 25 26 27 28 29 30 31 32 33 34 35 36 37 38 39 40 41 42 43 44 45 46 47 48 49 50
000
ASUS43 KIND 201959
RWRIN

WEATHER ROUNDUP FOR INDIANA
NATIONAL WEATHER SERVICE INDIANAPOLIS IN
400 PM EDT MON OCT 20 2014

NOTE: "FAIR" INDICATES FEW OR NO CLOUDS BELOW 12,000 FEET WITH NO
SIGNIFICANT WEATHER AND/OR OBSTRUCTIONS TO VISIBILITY.

* - STATION DOES NOT REPORT WEATHER SUCH AS PRECIPITATION OR FOG.

+ - STATION NOT QUALITY CONTROLLED BY THE NATIONAL WEATHER SERVICE.
    USE DATA WITH CAUTION...ESPECIALLY DEWPOINT AND RELATIVE
    HUMIDITY OBSERVATIONS.

INZ001>003-010>013-019-020-202100-
NORTHWEST INDIANA

CITY           SKY/WX    TMP DP  RH WIND       PRES   REMARKS
GARY /AIRPORT/ PTSUNNY   59  48  67 N9        29.86R
VALPARAISO     NOT AVBL

$$

LMZ046-743>745-202100-
SOUTHERN LAKE MICHIGAN

STATION/POSITION TIME  TEMP WIND        PRES
                       AIR  DIR/SP/G
                 (UTC) (F)  (DEG/KT/KT) (MB)
MICHIGAN CITY    1900   56  290/ 10/ 12   N/A

$$

INZ004-005-014>016-021>024-202100-
NORTH CENTRAL INDIANA

CITY           SKY/WX    TMP DP  RH WIND       PRES   REMARKS
ELKHART        SUNNY     59  46  63 NW8G16    29.82R
GOSHEN         SUNNY     62  50  64 NW12      29.80S
SOUTH BEND     SUNNY     59  48  67 NW14      29.84R

$$

INZ006>009-017-018-025>027-202100-
NORTHEAST INDIANA

CITY           SKY/WX    TMP DP  RH WIND       PRES   REMARKS
ANGOLA *+      PTSUNNY   57  50  77 VRB7      29.80S
FORT WAYNE     CLOUDY    57  52  83 S6        29.82F

$$

INZ028-029-035-036-043>045-051>053-202100-
WEST CENTRAL INDIANA

CITY           SKY/WX    TMP DP  RH WIND       PRES   REMARKS
GREENCASTLE +  PTSUNNY   68  45  42 W10G18    29.85S
LAFAYETTE      MOSUNNY   66  48  52 W14       29.83R
TERRE HAUTE    SUNNY     70  44  39 NW15G21   29.86S

$$

INZ030>032-037>040-046>048-054>057-064-065-202100-
CENTRAL INDIANA

CITY           SKY/WX    TMP DP  RH WIND       PRES   REMARKS
ANDERSON       MOSUNNY   63  50  63 SW12G17   29.83
COLUMBUS       MOSUNNY   66  52  59 W14       29.86S
INDIANAPOLIS   MOSUNNY   67  49  52 W17       29.84F
-EAGLE CREEK   MOSUNNY   65  48  54 W13       29.83S
KOKOMO *+      PTSUNNY   64  48  55 W15       29.81S
MT COMFORT *+  MOSUNNY   66  41  39 W12G17    29.84S
SHELBYVILLE    MOSUNNY   67  51  56 W10G20    29.84F

$$

INZ033-034-041-042-049-050-058-059-202100-
EAST CENTRAL INDIANA

CITY           SKY/WX    TMP DP  RH WIND       PRES   REMARKS
MUNCIE         PTSUNNY   63  51  65 W10       29.82F

$$

INZ060-061-067>069-081>083-085>088-202100-
SOUTHWEST INDIANA

CITY           SKY/WX    TMP DP  RH WIND       PRES   REMARKS
EVANSVILLE     SUNNY     71  53  52 SW15      29.90F
HUNTINGBURG *+ SUNNY     70  55  60 W13G22    29.90S

$$

INZ062-063-066-070>080-084-089>092-202100-
SOUTH CENTRAL AND SOUTHEAST INDIANA

CITY           SKY/WX    TMP DP  RH WIND       PRES   REMARKS
BLOOMINGTON    MOSUNNY   67  51  56 SW10G18   29.87F
SEYMOUR +      MOSUNNY   68  52  56 W13G21    29.86

$$



USA.gov is the U.S. government's official web portal to all federal, state and local government web resources and services.